Miscellaneous Local Product
Issued by NWS North Platte, NE

Home | Current Version | Previous Version | Graphics & Text | Print | Product List | Glossary On
Versions: 1 2 3 4 5 6 7 8 9 10 11 12 13 14 15 16 17 18 19 20 21 22 23 24 25 26 27 28 29 30 31 32 33 34 35 36 37 38 39 40 41 42 43 44 45 46 47 48 49 50
000
AXUS43 KLBF 092210
MISLBF


WESTERN AND NORTH CENTRAL NEBRASKA HOURLY WEATHER ROUNDUP
NATIONAL WEATHER SERVICE NORTH PLATTE NE
400 PM CST FRI DEC 09 2016

NOTE: "FAIR" INDICATES FEW OR NO CLOUDS BELOW 12,000 FEET WITH NO
SIGNIFICANT WEATHER AND/OR OBSTRUCTIONS TO VISIBILITY.

NOTE: STATIONS NOT REPORTING VARIABLES SUCH AS SKY/WEATHER OR
PRESSURE ARE PROVIDED BY RAWS AND APRS NETWORKS AND ARE NOT UNDER
NATIONAL WEATHER SERVICE QUALITY CONTROL.

...OBSERVATIONS IN AND NEAR THE EASTERN PANHANDLE OF NEBRASKA...

CITY           SKY/WX    TMP DP  RH WIND       PRES   REMARKS
PINE RIDGE     CLOUDY     5   0  79 NE6       30.31R WCI  -6
ALLIANCE       CLOUDY    20   6  55 N13       30.20R WCI   7
SIDNEY         SUNNY     26  13  57 NE8       30.18R WCI  18
CRESCENT LAKE    N/A     25  10  52 N9          N/A  WCI  16
$$

...OBSERVATIONS IN NORTHERN NEBRASKA AND FAR SOUTHERN SOUTH DAKOTA...

CITY           SKY/WX    TMP DP  RH WIND       PRES   REMARKS
WINNER         CLOUDY    12   5  73 NE9       30.43R HAZE    WCI   0
VALENTINE      PTCLDY    19   9  65 NE16      30.33R WCI   4
THEDFORD       CLEAR     28  11  49 W3        30.28R
AINSWORTH      CLOUDY    21   9  58 S5        30.32R WCI  15
O`NEILL        FLURRIES  19  10  67 S7        30.40R WCI  10
BROKEN BOW     CLOUDY    24  11  57 S10       30.31R WCI  14
VALENTINE NWR    N/A     22   4  46 E6          N/A  WCI  15
BUTTE            N/A     11   7  83 NE7         N/A  WCI   0
HALSEY           N/A     27   8  43 SE5         N/A  WCI  22
CHAMBERS         N/A     20   7  56 S3          N/A
EWING            N/A     18  11  73 S5          N/A  WCI  11
$$

...OBSERVATIONS IN SOUTHWEST NEBRASKA AND FAR NORTHEAST COLORADO...

CITY           SKY/WX    TMP DP  RH WIND       PRES   REMARKS
WRAY           MOCLDY    34  19  55 CALM      30.18S
HOLYOKE        FAIR      34  19  55 N5        30.20R WCI  30
IMPERIAL       SUNNY     32  18  56 N5        30.22R WCI  27
OGALLALA       SUNNY     28  15  58 CALM      30.23R
NORTH PLATTE   SUNNY     28  13  53 S8        30.27R WCI  20
MCCOOK         SUNNY     30  17  58 E9        30.27R WCI  22
LEXINGTON      PTSUNNY   27  14  57 S9        30.32S WCI  18
STAPLETON        N/A     25  13  59 CALM        N/A
GOTHENBURG       N/A     27  14  57 SE5         N/A  WCI  22
CALLAWAY         N/A     24  14  64 S8          N/A  WCI  15
$$

...OBSERVATIONS IN CENTRAL LINCOLN COUNTY AREA...

CITY           SKY/WX    TMP DP  RH WIND       PRES   REMARKS
N.P. AIRPORT   SUNNY     28  13  53 S8        30.27R WCI  20
N.P. DOWNTOWN    N/A     27  15  61 S3          N/A
N.P. SOUTHEAST   N/A     28  16  59 S3          N/A
N.P. HILLCREST   N/A     28  16  60 S3          N/A
$$

...SOME OBSERVATIONS FROM AROUND THE REGION...

CITY           SKY/WX    TMP DP  RH WIND       PRES   REMARKS
LARAMIE        CLOUDY    36  23  59 SW8       30.08S WCI  30
CHEYENNE       CLOUDY    45  24  43 W15G23    30.09R
DENVER         CLOUDY    45  29  53 NE7       30.08R
AKRON          SUNNY     34  20  56 E7        30.13R WCI  28
SCOTTSBLUFF    SUNNY     26  11  52 E8        30.19R WCI  18
RAPID CITY     FLURRIES   3  -3  76 N8        30.34S WCI -10
BISMARCK       MOCLDY    -1  -7  75 W7        30.54F WCI -14
PIERRE         LGT SNOW   5  -2  72 N10       30.49R WCI -10
SIOUX FALLS    MOCLDY    14   7  73 NE5       30.48S WCI   6
OMAHA          CLOUDY    21   8  57 E5        30.53F WCI  15
GRAND ISLAND   CLOUDY    22  11  62 S13       30.40S WCI  10
KANSAS CITY    CLOUDY    27   8  44 SE5       30.53R WCI  22
WICHITA        CLOUDY    28  11  48 S13       30.44S WCI  17
OKLAHOMA CITY  CLOUDY    34  12  40 S14       30.44F WCI  25
DALLAS         PTSUNNY   38  13  35 SE6       30.51F WCI  33
AMARILLO       SUNNY     47  29  49 S14       30.20S
DODGE CITY     SUNNY     35  17  47 S17       30.28S WCI  25
HAYS           SUNNY     30  14  51 S18       30.33S WCI  18
GOODLAND       SUNNY     38  23  55 S7        30.18R WCI  33
$$




USA.gov is the U.S. government's official web portal to all federal, state and local government web resources and services.